TimeEST,TemperatureF,Dew PointF,Humidity,Sea Level PressureIn,VisibilityMPH,Wind Direction,Wind SpeedMPH,Gust SpeedMPH,PrecipitationIn,Events,Conditions,WindDirDegrees,DateUTC
12:15 AM,39.2,37.6,94,29.81,3.0,North,8.1,-,N/A,,Light Drizzle,10,2013-02-24 05:15:00
12:35 AM,38.8,37.4,95,29.81,3.0,North,5.8,-,N/A,,Light Drizzle,10,2013-02-24 05:35:00
12:55 AM,38.8,37.4,95,29.81,3.0,North,4.6,-,N/A,,Light Drizzle,350,2013-02-24 05:55:00
1:15 AM,39.0,37.4,94,29.81,5.0,North,5.8,-,N/A,,Light Drizzle,350,2013-02-24 06:15:00
1:35 AM,39.2,37.4,93,29.81,7.0,North,6.9,-,N/A,,Light Drizzle,350,2013-02-24 06:35:00
1:55 AM,39.2,37.4,93,29.81,7.0,North,5.8,-,N/A,,Overcast,360,2013-02-24 06:55:00
2:15 AM,39.0,37.4,94,29.80,4.0,North,4.6,-,N/A,,Overcast,350,2013-02-24 07:15:00
2:35 AM,39.0,37.6,95,29.80,5.0,North,5.8,-,N/A,,Overcast,360,2013-02-24 07:35:00
2:55 AM,39.2,37.6,94,29.80,7.0,NNW,5.8,-,N/A,,Overcast,330,2013-02-24 07:55:00
3:15 AM,39.4,37.6,93,29.80,7.0,NW,5.8,-,N/A,,Overcast,320,2013-02-24 08:15:00
3:35 AM,38.8,37.4,95,29.80,10.0,NW,5.8,-,N/A,,Overcast,320,2013-02-24 08:35:00
3:55 AM,38.8,37.4,95,29.80,10.0,NW,6.9,-,N/A,,Overcast,310,2013-02-24 08:55:00
4:15 AM,39.0,37.2,93,29.79,10.0,North,5.8,-,N/A,,Overcast,360,2013-02-24 09:15:00
4:35 AM,38.5,36.7,93,29.78,10.0,North,4.6,-,N/A,,Scattered Clouds,10,2013-02-24 09:35:00
4:55 AM,38.7,36.7,93,29.76,10.0,North,4.6,-,N/A,,Clear,10,2013-02-24 09:55:00
5:15 AM,38.8,36.9,93,29.77,10.0,North,5.8,-,N/A,,Mostly Cloudy,350,2013-02-24 10:15:00
5:35 AM,39.2,37.0,92,29.77,10.0,NNW,4.6,-,N/A,,Overcast,340,2013-02-24 10:35:00
5:55 AM,39.2,36.9,91,29.77,10.0,NW,4.6,-,N/A,,Overcast,320,2013-02-24 10:55:00
6:15 AM,38.8,36.7,92,29.77,10.0,NW,5.8,-,N/A,,Overcast,310,2013-02-24 11:15:00
6:35 AM,38.3,36.5,93,29.78,10.0,WNW,8.1,-,N/A,,Overcast,300,2013-02-24 11:35:00
6:55 AM,38.3,36.3,93,29.78,10.0,NW,8.1,-,N/A,,Overcast,310,2013-02-24 11:55:00
7:15 AM,38.3,36.1,92,29.79,10.0,WNW,4.6,-,N/A,,Overcast,300,2013-02-24 12:15:00
7:35 AM,38.5,36.1,91,29.78,10.0,NW,8.1,-,N/A,,Overcast,310,2013-02-24 12:35:00
7:55 AM,39.0,36.7,91,29.77,10.0,NNW,4.6,-,N/A,,Scattered Clouds,330,2013-02-24 12:55:00
8:15 AM,39.9,36.7,88,29.78,10.0,WNW,3.5,-,N/A,,Clear,300,2013-02-24 13:15:00
8:35 AM,40.5,37.4,89,29.79,10.0,WNW,11.5,-,N/A,,Clear,290,2013-02-24 13:35:00
8:55 AM,41.7,38.3,88,29.79,10.0,WNW,11.5,-,N/A,,Scattered Clouds,300,2013-02-24 13:55:00
9:15 AM,42.1,37.9,85,29.79,10.0,NW,10.4,-,N/A,,Mostly Cloudy,320,2013-02-24 14:15:00
9:35 AM,42.4,38.1,85,29.79,10.0,NW,11.5,-,N/A,,Mostly Cloudy,320,2013-02-24 14:35:00
9:55 AM,43.7,38.5,82,29.78,10.0,NW,12.7,18.4,N/A,,Mostly Cloudy,320,2013-02-24 14:55:00
10:15 AM,44.6,38.3,79,29.78,10.0,NW,12.7,18.4,N/A,,Mostly Cloudy,310,2013-02-24 15:15:00
10:35 AM,46.0,38.8,76,29.78,10.0,NW,11.5,-,N/A,,Mostly Cloudy,310,2013-02-24 15:35:00
10:55 AM,46.8,38.7,73,29.78,10.0,WNW,9.2,-,N/A,,Scattered Clouds,300,2013-02-24 15:55:00
11:15 AM,47.7,37.9,69,29.78,10.0,NW,11.5,19.6,N/A,,Scattered Clouds,310,2013-02-24 16:15:00
11:35 AM,48.4,37.0,65,29.78,10.0,NW,11.5,16.1,N/A,,Scattered Clouds,310,2013-02-24 16:35:00
11:55 AM,49.5,36.3,61,29.78,10.0,NW,10.4,18.4,N/A,,Scattered Clouds,310,2013-02-24 16:55:00
12:15 PM,48.7,33.1,55,29.77,10.0,NNW,11.5,20.7,N/A,,Mostly Cloudy,330,2013-02-24 17:15:00
12:35 PM,49.1,33.6,55,29.77,10.0,WNW,18.4,21.9,N/A,,Mostly Cloudy,300,2013-02-24 17:35:00
12:55 PM,49.8,33.1,53,29.77,10.0,West,19.6,25.3,N/A,,Scattered Clouds,280,2013-02-24 17:55:00
1:15 PM,49.3,32.5,53,29.76,10.0,WNW,20.7,27.6,N/A,,Mostly Cloudy,300,2013-02-24 18:15:00
1:35 PM,49.5,32.2,51,29.76,10.0,WNW,16.1,25.3,N/A,,Mostly Cloudy,300,2013-02-24 18:35:00
1:55 PM,48.4,31.3,52,29.76,10.0,WNW,16.1,27.6,N/A,,Overcast,290,2013-02-24 18:55:00
2:15 PM,48.2,31.1,52,29.77,10.0,WNW,18.4,27.6,N/A,,Overcast,290,2013-02-24 19:15:00
2:35 PM,47.3,30.2,52,29.77,10.0,NW,10.4,24.2,N/A,,Overcast,310,2013-02-24 19:35:00
2:55 PM,46.6,30.2,53,29.77,10.0,NW,16.1,21.9,N/A,,Overcast,320,2013-02-24 19:55:00
3:15 PM,46.6,29.5,51,29.77,10.0,NW,15.0,21.9,N/A,,Overcast,320,2013-02-24 20:15:00
3:35 PM,45.7,30.2,55,29.78,10.0,WNW,19.6,26.5,N/A,,Overcast,300,2013-02-24 20:35:00
3:55 PM,45.0,30.0,56,29.79,10.0,WNW,13.8,-,N/A,,Overcast,300,2013-02-24 20:55:00
4:15 PM,43.9,30.4,59,29.81,10.0,WNW,20.7,26.5,N/A,,Overcast,300,2013-02-24 21:15:00
4:35 PM,43.2,30.9,62,29.81,10.0,WNW,18.4,-,N/A,,Overcast,290,2013-02-24 21:35:00
4:55 PM,41.4,30.7,66,29.83,10.0,WNW,23.0,28.8,N/A,,Unknown,290,2013-02-24 21:55:00
5:15 PM,40.3,28.9,64,29.86,10.0,NW,15.0,27.6,N/A,,Overcast,310,2013-02-24 22:15:00
5:35 PM,40.1,26.2,58,29.86,10.0,WNW,17.3,24.2,N/A,,Overcast,300,2013-02-24 22:35:00
5:55 PM,39.4,25.3,57,29.87,10.0,WNW,17.3,25.3,N/A,,Mostly Cloudy,300,2013-02-24 22:55:00
6:15 PM,39.2,25.3,58,29.88,10.0,WNW,15.0,18.4,N/A,,Mostly Cloudy,290,2013-02-24 23:15:00
6:35 PM,38.7,23.7,55,29.90,10.0,NW,11.5,19.6,N/A,,Scattered Clouds,310,2013-02-24 23:35:00
6:55 PM,38.3,23.0,54,29.91,10.0,NW,12.7,19.6,N/A,,Clear,310,2013-02-24 23:55:00
7:15 PM,38.3,22.8,54,29.92,10.0,WNW,15.0,21.9,N/A,,Clear,300,2013-02-25 00:15:00
7:35 PM,37.6,23.0,56,29.93,10.0,WNW,11.5,-,N/A,,Clear,300,2013-02-25 00:35:00
7:55 PM,37.4,23.5,57,29.93,10.0,WNW,13.8,23.0,N/A,,Clear,300,2013-02-25 00:55:00
8:15 PM,37.4,24.3,59,29.94,10.0,WNW,20.7,25.3,N/A,,Clear,300,2013-02-25 01:15:00
8:35 PM,36.9,23.5,59,29.96,10.0,NW,17.3,29.9,N/A,,Clear,310,2013-02-25 01:35:00
8:55 PM,36.5,23.7,60,29.96,10.0,WNW,11.5,20.7,N/A,,Clear,300,2013-02-25 01:55:00
9:15 PM,36.5,23.2,59,29.96,10.0,NW,10.4,23.0,N/A,,Clear,310,2013-02-25 02:15:00
9:35 PM,36.0,23.2,60,29.97,10.0,NW,11.5,18.4,N/A,,Clear,310,2013-02-25 02:35:00
9:55 PM,35.6,23.0,60,29.98,10.0,WNW,8.1,17.3,N/A,,Clear,300,2013-02-25 02:55:00
10:15 PM,35.6,22.6,59,29.98,10.0,NW,9.2,21.9,N/A,,Clear,310,2013-02-25 03:15:00
10:35 PM,35.2,22.5,60,29.98,10.0,WNW,11.5,19.6,N/A,,Clear,300,2013-02-25 03:35:00
10:55 PM,35.2,22.5,60,29.98,10.0,WNW,15.0,21.9,N/A,,Clear,300,2013-02-25 03:55:00
11:15 PM,34.9,22.5,61,29.98,10.0,NW,13.8,23.0,N/A,,Clear,310,2013-02-25 04:15:00
11:35 PM,34.9,22.5,61,29.98,10.0,NW,8.1,16.1,N/A,,Clear,320,2013-02-25 04:35:00
11:55 PM,34.7,22.5,61,29.99,10.0,NW,6.9,-,N/A,,Clear,310,2013-02-25 04:55:00